Preview of NWS' New Version of Forecast
This preview is not operational and should not be used for support decisions.

Regional Weather Roundup (RWR)

Issued by National Weather Service (NWS)

                            
000
ASUS45 KCYS 250910
RWRWY 

WYOMING REGIONAL WEATHER ROUNDUP
NATIONAL WEATHER SERVICE CHEYENNE WY
300 AM MDT TUE JUN 25 2019

NOTE:  "FAIR" INDICATES FEW OR NO CLOUDS BELOW 12,000 FEET
WITH NO SIGNIFICANT WEATHER AND/OR OBSTRUCTIONS TO VISIBILITY.

WYZ001-251000-
...YELLOWSTONE NATIONAL PARK...
  
CITY           SKY/WX    TMP DP  RH WIND       PRES   REMARKS
LK YELLOWSTONE   N/A     33  32  96 CALM      30.08R                  
W YELLOWSTONE  NOT AVBL                                               

$$
WYZ002>013-054>058-071-098>099-251000-
...NORTHERN WYOMING...
  
CITY           SKY/WX    TMP DP  RH WIND       PRES   REMARKS
JACKSON        PTCLDY    41  29  62 SE3       30.03R                  
CODY           MOCLDY    47  40  76 S6        29.98R                  
GREYBULL       PTCLDY    56  43  61 CALM      29.91S                  
WORLAND        PTCLDY    47  40  76 S8        29.92S                  
SHERIDAN       MOCLDY    49  46  90 CALM      29.94F                  
BUFFALO        PTCLDY    46  43  89 SW7       29.99R                  
GILLETTE       MOCLDY    46  45  96 S5        29.96F                  
HULETT         LGT RAIN  52  45  76 S7        29.99R                  
NEWCASTLE      MOCLDY    48  43  81 NE6       29.97S                  

$$
WYZ014>020-022>026-101>103-251000-
...CENTRAL WYOMING...
  
CITY           SKY/WX    TMP DP  RH WIND       PRES   REMARKS
BIG PINEY      CLEAR     36  29  75 E3        30.08S                  
PINEDALE       CLEAR     34  30  86 W3        30.09S                  
DUBOIS         FAIR      39  27  60 W7        30.04S WCI  34          
LANDER         PTCLDY    54  31  41 SW9       29.97R                  
RIVERTON       PTCLDY    52  38  58 NE7       29.97S                  
CASPER         CLEAR     43  42  97 NW6       29.99S                  
DOUGLAS        CLEAR     46  42  86 CALM      29.99R                  

$$
WYZ021-027>030-104>119-251000-
...SOUTHERN WYOMING...
  
CITY           SKY/WX    TMP DP  RH WIND       PRES   REMARKS
EVANSTON       CLEAR     50  33  52 SE8       30.06S                  
KEMMERER       PTCLDY    41  36  81 N8        30.08S                  
FORT BRIDGER   NOT AVBL                                               
ROCK SPRINGS   MOCLDY    52  29  41 S7        30.06R                  
DIXON          FAIR      48  38  67 E23       30.09F                  
RAWLINS        CLOUDY    56  31  38 W9        30.09R                  
SARATOGA       MOCLDY    45  37  76 CALM      30.11R                  
LARAMIE        CLEAR     47  35  63 W12       30.09S                  
CHEYENNE       CLEAR     50  38  63 MISG        N/A                   
TORRINGTON     CLEAR     52  50  93 NE14      29.93R                  
PINE BLUFFS    FAIR      50  41  71 W10       29.98S                  

$$
  

000
ASUS45 KCYS 250910
RWRWY 

WYOMING REGIONAL WEATHER ROUNDUP
NATIONAL WEATHER SERVICE CHEYENNE WY
300 AM MDT TUE JUN 25 2019

NOTE:  "FAIR" INDICATES FEW OR NO CLOUDS BELOW 12,000 FEET
WITH NO SIGNIFICANT WEATHER AND/OR OBSTRUCTIONS TO VISIBILITY.

WYZ001-251000-
YELLOWSTONE NATIONAL PARK
  
CITY           SKY/WX    TMP DP  RH WIND       PRES   REMARKS
LK YELLOWSTONE   N/A     33  32  96 CALM      30.08R                  
W YELLOWSTONE  NOT AVBL                                               

$$
WYZ002>013-054>058-071-098>099-251000-
NORTHERN WYOMING
  
CITY           SKY/WX    TMP DP  RH WIND       PRES   REMARKS
JACKSON        FAIR      41  29  62 SE3       30.03R                  
CODY           MOCLDY    47  40  76 S6        29.98R                  
GREYBULL       FAIR      56  43  61 CALM      29.91S                  
WORLAND        FAIR      47  40  76 S8        29.92S                  
SHERIDAN       FAIR      49  46  90 CALM      29.94F                  
BUFFALO        FAIR      46  43  89 SW7       29.99R                  
GILLETTE       FAIR      46  45  96 S5        29.96F                  
HULETT         LGT RAIN  52  45  76 S7        29.99R                  
NEWCASTLE      PTSUNNY   48  43  81 NE6       29.97S                  

$$
WYZ014>020-022>026-101>103-251000-
CENTRAL WYOMING
  
CITY           SKY/WX    TMP DP  RH WIND       PRES   REMARKS
BIG PINEY      FAIR      36  29  75 E3        30.08S                  
PINEDALE       FAIR      34  30  86 W3        30.09S                  
DUBOIS         FAIR      39  27  60 W7        30.04S WCI  34          
LANDER         FAIR      54  31  41 SW9       29.97R                  
RIVERTON       FAIR      52  38  58 NE7       29.97S                  
CASPER         FAIR      43  42  97 NW6       29.99S                  
DOUGLAS        FAIR      46  42  86 CALM      29.99R                  

$$
WYZ021-027>030-104>119-251000-
SOUTHERN WYOMING
  
CITY           SKY/WX    TMP DP  RH WIND       PRES   REMARKS
EVANSTON       FAIR      50  33  52 SE8       30.06S                  
KEMMERER       FAIR      41  34  75 N8        30.08S                  
ROCK SPRINGS   FAIR      52  29  41 S7        30.06R                  
DIXON          FAIR      48  38  67 E23       30.09F                  
RAWLINS        CLOUDY    56  31  38 W9        30.09R                  
SARATOGA       PTSUNNY   45  37  76 CALM      30.11R                  
LARAMIE        FAIR      47  35  63 W12       30.09S                  
CHEYENNE       FAIR      50  38  63 MISG        N/A                   
TORRINGTON     FAIR      52  50  93 NE14      29.93R                  
PINE BLUFFS    FAIR      50  41  71 W10       29.98S                  

$$